Location: Unspecified
(0.0000°N, 0.0000°E)
Time: 17:12:08
(UTC+00:00)

CZ-3 Stage 3 - Pass Details

Date: 24 May 2019
Orbit: 500 x 34691 km, 30.5° (Epoch: 19 June)

Event Time Altitude Azimuth Distance (km) Brightness Sun altitude
Rises 03:27:42 0° 311° (NW) 7,657 7.4 -34.5°
Reaches altitude 10° 03:31:13 10° 316° (NW) 7,701 7.4 -33.7°
Maximum altitude 07:00:50 89° 327° (NNW) 32,973 11.0 14.9°
Drops below altitude 10° 13:05:04 10° 135° (SE) 6,258 7.0 63.4°
Sets 13:08:15 0° 126° (SE) 6,276 6.9 62.9°
